Other Surface Observations
Issued by NWS Charleston, SC

Home | Current Version | Previous Version | Text Only | Print | Product List | Glossary On
Versions: 1 2 3 4 5 6 7 8 9 10 11 12 13 14 15 16 17 18 19 20 21 22 23 24 25 26 27 28 29 30 31 32 33 34 35 36 37 38 39 40 41 42 43 44 45 46 47 48 49 50
000
SXUS52 KCHS 201325
OSOCHS

MARINE OBSERVATIONS
NATIONAL WEATHER SERVICE CHARLESTON SC
900 AM EDT MON OCT 20 2014

...DOWNTOWN CHARLESTON AND HARBOR...

CITY           SKY/WX    TMP DP  RH WIND       PRES   REMARKS
WATERFRONT PRK   N/A     64 N/A N/A N8          N/A
FORT JOHNSON   NOT AVBL

...LAKE MOULTRIE...

CITY           SKY/WX    TMP DP  RH WIND       PRES   REMARKS
PINOPOLIS        N/A     64  52  63 E5        30.07R

...LAKE AND SUPPLEMENTAL COASTAL OBSERVATIONS...

STATION/POSITION TIME  TEMP    WIND        PRES    WAVE   SWELL
                       AIR SEA DIR/SP/G            HT/PER HT/PER/DIR
                 (UTC) (F)     (DEG/KT/KT) (MB)    (FT/S) (FT/S/D)
FORT PULASKI     1300   67      30/ 10/ 13 1020.1R
SAPELO ISLAND    NOT AVBL
UPR LAKE MARION  NOT AVBL
WINYAH BAY       1300   59     340/  5     1021.0R
LAKE MURRAY      1300   61     150/  2/  4 1020.3S
ACE BASIN NERRS  1300   55      20/  2     1020.0S


...C-MAN AND BUOY OBSERVATIONS...

STATION/POSITION TIME  TEMP    WIND        PRES    WAVE   SWELL
                       AIR SEA DIR/SP/G            HT/PER HT/PER/DIR
                 (UTC) (F)     (DEG/KT/KT) (MB)    (FT/S) (FT/S/D)
BUOY 41004       1300   72 79   60/  4/  6 1019.9R   2/10   2/10
BUOY 41008       1300   72 76   70/ 12/ 14 1019.0R   2/ 7   2/ 80/ 7
FOLLY BEACH CMAN 1300   64      10/  8/  9 1020.9R
CAPERS NS BUOY   1200   67      40/ 12/ 16   N/A
FRIPP NS BUOY    NOT AVBL
5E ST. MARYS GA  1300      77                N/A     3/11   2/100/11
FRYING PAN BUOY  1300   67 75   20/  6/  8 1021.7R   2/ 9   2/110/ 9
BUOY 41025       1300   66     220/  2/  4 1022.2R   3/11   3/ 60/11
CAPE LOOKOUT NC  1300   62     360/  8/  9 1021.8R
BUOY 41002       1220   71 80   80/  8/ 14 1021.1R   4/ 9   3/ 30/ 9
BUOY 41010       1300   78 80   80/ 12/ 16 1018.1R   4/ 7   2/ 30/ 7
BUOY 41012       NOT AVBL
ST AUGUSTINE FL  1300   76      90/  8/ 10 1019.3R


$$



USA.gov is the U.S. government's official web portal to all federal, state and local government web resources and services.